Regional Weather Roundup
Issued by NWS

Home | Current Version | Previous Version | Text Only | Print | Product List | Glossary Off
Versions: 1 2 3 4 5 6 7 8 9 10 11 12 13 14 15 16 17 18 19 20 21 22 23 24 25 26 27 28 29 30 31 32 33 34 35 36 37 38 39 40 41 42 43 44 45 46 47 48 49 50

000
ASUS43 KMKX 190011
RWRWI

WISCONSIN REGIONAL WEATHER ROUNDUP
NATIONAL WEATHER SERVICE MILWAUKEE/SULLIVAN WI
700 PM CDT THU SEP 18 2014

NOTE: "FAIR" INDICATES FEW OR NO CLOUDS BELOW 12,000 FEET WITH NO
SIGNIFICANT WEATHER AND/OR OBSTRUCTIONS TO VISIBILITY.

WIZ001-002-006>008-014>016-023>028-190100-
NORTHWEST WISCONSIN

CITY           SKY/WX    TMP DP  RH WIND       PRES   REMARKS
SUPERIOR ARPT  CLOUDY    48  45  87 NE7       30.06S
6HR MIN TEMP:  48; 6HR MAX TEMP:  50;

ASHLAND        CLEAR     47  43  86 NE7       30.08F
6HR MIN TEMP:  47; 6HR MAX TEMP:  52;

HAYWARD        CLEAR     57  51  80 SE3       30.05F
6HR MIN TEMP:  52; 6HR MAX TEMP:  60;

SIREN          CLEAR     60  53  77 SE6       30.03S
6HR MIN TEMP:  55; 6HR MAX TEMP:  65;

RICE LAKE      CLEAR     59  52  78 SE8       30.06F
6HR MIN TEMP:  52; 6HR MAX TEMP:  61;

LADYSMITH      CLEAR     57  51  82 S3        30.09S
6HR MIN TEMP:  52; 6HR MAX TEMP:  61;

EAU CLAIRE     NOT AVBL
MENOMONIE      CLEAR     62  55  77 E5        30.05S
6HR MIN TEMP:  59; 6HR MAX TEMP:  67;

NEW RICHMOND   CLEAR     62  55  77 SE6       30.02S
6HR MIN TEMP:  61; 6HR MAX TEMP:  69;

OSCEOLA        CLEAR     64  57  77 SE9       30.03F
6HR MIN TEMP:  61; 6HR MAX TEMP:  69;

$$

WIZ003>005-009-010-017-018-190100-
NORTH CENTRAL WISCONSIN

CITY           SKY/WX    TMP DP  RH WIND       PRES   REMARKS
WOODRUFF       CLEAR     55  49  81 CALM      30.10S
6HR MIN TEMP:  49; 6HR MAX TEMP:  57;

RHINELANDER    CLEAR     53  47  79 SE3       30.11F
6HR MIN TEMP:  47; 6HR MAX TEMP:  57;

EAGLE RIVER    CLEAR     52  45  77 CALM      30.10F
6HR MIN TEMP:  50; 6HR MAX TEMP:  55;

LAND O LAKES   PTCLDY    51  46  83 CALM      30.11F
6HR MIN TEMP:  51; 6HR MAX TEMP:  55;

PHILLIPS       CLEAR     54  49  83 SE6       30.08F
6HR MIN TEMP:  49; 6HR MAX TEMP:  57;

TOMAHAWK       CLEAR     50  47  87 CALM      30.11S FOG
6HR MIN TEMP:  47; 6HR MAX TEMP:  56;

MEDFORD        CLEAR     51  48  90 SE3       30.10S
6HR MIN TEMP:  48; 6HR MAX TEMP:  55;

MERRILL        CLEAR     54  49  83 CALM      30.11S
6HR MIN TEMP:  48; 6HR MAX TEMP:  58;

$$

WIZ029-030-035-036-043>047-190100-
CENTRAL WISCONSIN

CITY           SKY/WX    TMP DP  RH WIND       PRES   REMARKS
WAUSAU         CLEAR     55  48  77 S8        30.10F
6HR MIN TEMP:  49; 6HR MAX TEMP:  58;

MOSINEE        CLEAR     54  50  87 SE5       30.13S
MARSHFIELD     CLEAR     54  49  83 SE5       30.10F
6HR MIN TEMP:  50; 6HR MAX TEMP:  57;

STEVENS POINT  CLEAR     52  47  83 E5        30.13S
6HR MIN TEMP:  47; 6HR MAX TEMP:  55;

WAUPACA        CLEAR     57  52  81 SE3       30.13S
6HR MIN TEMP:  54; 6HR MAX TEMP:  62;

WAUTOMA        CLEAR     57  52  84 CALM      30.12F
6HR MIN TEMP:  53; 6HR MAX TEMP:  63;

WISC RAPIDS    CLEAR     57  50  77 E3        30.12F
6HR MIN TEMP:  51; 6HR MAX TEMP:  62;

CAMP DOUGLAS   CLEAR     57  57 100 SE6       30.10F
$$

WIZ011>013-019>022-031-037>040-048>050-190100-
NORTHEAST WISCONSIN

CITY           SKY/WX    TMP DP  RH WIND       PRES   REMARKS
ANTIGO         CLEAR     50  46  87 SE7       30.13S
6HR MIN TEMP:  49; 6HR MAX TEMP:  56;

STURGEON BAY   CLEAR     52  43  71 E3        30.16S
6HR MIN TEMP:  52; 6HR MAX TEMP:  55;

GREEN BAY      PTCLDY    52  48  86 NE6       30.15S
6HR MIN TEMP:  52; 6HR MAX TEMP:  59;

MANITOWOC      PTCLDY    52  48  86 E3        30.16S
6HR MIN TEMP:  52; 6HR MAX TEMP:  58;

APPLETON       MOCLDY    57  48  72 VRB3      30.14S
CLINTONVILLE   PTCLDY    54  46  76 E3        30.13F
OSHKOSH        CLEAR     57  51  80 NE3       30.13S
6HR MIN TEMP:  54; 6HR MAX TEMP:  60;

$$

WIZ032>034-041-042-053>061-190100-
SOUTHWEST WISCONSIN

CITY           SKY/WX    TMP DP  RH WIND       PRES   REMARKS
LA CROSSE      CLEAR     66  55  67 SE8       30.06R
6HR MIN TEMP:  64; 6HR MAX TEMP:  72;

SPARTA         CLEAR     62  53  70 SE5       30.10S
VIROQUA        FAIR      60  55  82 E5        30.09S
6HR MIN TEMP:  60; 6HR MAX TEMP:  67;

BOSCOBEL       CLEAR     64  57  78 CALM      30.08S
6HR MIN TEMP:  63; 6HR MAX TEMP:  71;

PRAIRIE DU CHI CLEAR     66  54  64 E3        30.06S
6HR MIN TEMP:  66; 6HR MAX TEMP:  72;

PLATTEVILLE    FAIR      64  52  67 CALM      30.09F
6HR MIN TEMP:  64; 6HR MAX TEMP:  70;

$$

WIZ056-057-062-063-064-067-068-190100-
SOUTH CENTRAL WISCONSIN

CITY           SKY/WX    TMP DP  RH WIND       PRES   REMARKS
BARABOO/DELLS  CLEAR     58  51  77 E3        30.11S
6HR MIN TEMP:  53; 6HR MAX TEMP:  63;

LONE ROCK      CLEAR     62  54  74 E6        30.10S
6HR MIN TEMP:  60; 6HR MAX TEMP:  70;

WATERTOWN      CLEAR     58  55  88 E6        30.12S
6HR MIN TEMP:  56; 6HR MAX TEMP:  66;

MADISON        PTCLDY    60  52  74 E6        30.12R
6HR MIN TEMP:  54; 6HR MAX TEMP:  67;

MIDDLETON      FAIR      61  52  73 SE5       30.12R
6HR MIN TEMP:  57; 6HR MAX TEMP:  66;

MONROE         CLEAR     63  54  72 E3        30.11R
JANESVILLE     PTCLDY    63  54  72 E9        30.11R
$$

WIZ051-052-058>065-066-070>072-190100-
SOUTHEAST WISCONSIN

CITY           SKY/WX    TMP DP  RH WIND       PRES   REMARKS
MILWAUKEE      MOCLDY    56  51  84 N6        30.15S
6HR MIN TEMP:  56; 6HR MAX TEMP:  59;

WAUKESHA       PTCLDY    54  48  82 E7        30.15S
MILWAUKEE/TIMM CLOUDY    55  48  76 N5        30.16R
RACINE         CLOUDY    57  52  83 N5        30.16S
6HR MIN TEMP:  57; 6HR MAX TEMP:  60;

BURLINGTON     MOCLDY    54  50  89 E6        30.15R
6HR MIN TEMP:  54; 6HR MAX TEMP:  64;

KENOSHA        CLOUDY    57  52  83 NE8       30.15S
6HR MIN TEMP:  57; 6HR MAX TEMP:  64;

FOND DU LAC    CLEAR     56  50  80 NE6       30.13S
6HR MIN TEMP:  56; 6HR MAX TEMP:  62;

SHEBOYGAN      CLEAR     51  46  83 E5        30.15S
6HR MIN TEMP:  51; 6HR MAX TEMP:  59;

WEST BEND      CLEAR     52  46  82 SE5       30.15S
JUNEAU         CLEAR     58  53  83 E5        30.14R
6HR MIN TEMP:  54; 6HR MAX TEMP:  63;

$$

LSZ147-162-190100-
LAKE SUPERIOR

STATION/POSITION TIME  TEMP    WIND        PRES    WAVE
                       AIR SEA DIR/SP/G            HT/PER
                 (UTC) (F)     (DEG/KT/KT) (MB)    (FT/S)
W MID LAKE BUOY  2350   47 47   70/ 10/ 10 1019.2F   1/ 3
DEVILS ISLAND    0000   47      80/ 10/ 12 1019.2F
PORT WING        2300   50      40/ 11/ 14 1018.3F
SAXON HARBOR     2300   52      40/  8/ 10 1019.3F
$$

LMZ867-665-643>646-190100-
LAKE MICHIGAN

STATION/POSITION TIME  TEMP    WIND        PRES    WAVE
                       AIR SEA DIR/SP/G            HT/PER
                 (UTC) (F)     (DEG/KT/KT) (MB)    (FT/S)
N MID LAKE BUOY  2350   52 58   60/  4/  6 1021.5F   0
NORTHPORT PIER   2300   53      80/  6/  7 1021.0F
SISTER BAY       2257   54     140/  6/ 10   N/A
KEWAUNEE LAKESHO 2300   53     110/  5/  6 1020.3S
SHEBOYGAN LAKESH 0000   52 49   30/  8/  9 1021.6R
PORT WASHINGTON  2300   57      60/  5/  7 1021.3
ATWATER BUOY     0000   57      50/  4/  6 1022.1R
MILWAUKEE LAKESH 2300   56      20/  6/  8   N/A
S MID LAKE BUOY  2350   61 65   10/  8/ 10 1020.3R   2/ 6
KENOSHA   LAKESH 0000   57      20/  8/  9 1020.3S
$$

TC  - TEMPERATURE IN CELSIUS
VSB - VISIBILITY IN STATUTE MILES
WCI - WIND CHILL INDEX
HX  - HEAT INDEX



USA.gov is the U.S. government's official web portal to all federal, state and local government web resources and services.